Regional Weather Roundup
Issued by NWS

Home | Current Version | Previous Version | Text Only | Print | Product List | Glossary Off
Versions: 1 2 3 4 5 6 7 8 9 10 11 12 13 14 15 16 17 18 19 20 21 22 23 24 25 26 27 28 29 30 31 32 33 34 35 36 37 38 39 40 41 42 43 44 45 46 47 48 49 50

323
ASUS43 KTOP 110808
RWRKS

WEATHER ROUNDUP FOR KANSAS
NATIONAL WEATHER SERVICE GOODLAND KS
200 AM CST SUN DEC 11 2016

NOTE:  "FAIR" INDICATES FEW OR NO CLOUDS BELOW 12,000 FEET WITH NO
SIGNIFICANT WEATHER AND/OR OBSTRUCTIONS TO VISIBILITY.

KSZ001>006-013>018-027>032-041>047-110900-
NORTHWEST KANSAS

CITY           SKY/WX    TMP DP  RH WIND       PRES   REMARKS
GOODLAND       CLOUDY    30  23  75 W10       29.64F WCI  21
HAYS           CLOUDY    27  25  92 CALM      29.66F
HILL CITY      CLOUDY    22  19  89 CALM      29.67F
RUSSELL        CLOUDY    30  27  88 S12       29.64F WCI  20
$$

KSZ061>065-074>080-084>089-110900-
SOUTHWEST KANSAS

CITY           SKY/WX    TMP DP  RH WIND       PRES   REMARKS
DODGE CITY     CLOUDY    34  32  92 N8        29.64R
ELKHART          N/A     44  16  32 W14         N/A
GARDEN CITY    CLOUDY    27  24  89 CALM      29.65R
GREAT BEND     CLOUDY    29  27  92 SE5       29.66F
LIBERAL        CLOUDY    37  23  56 W12       29.64R WCI  30
PRATT          CLOUDY    34  33  94 S16       29.65F WCI  24
$$

KSZ066>073-081>083-090>101-110900-
SOUTHEAST KANSAS

CITY           SKY/WX    TMP DP  RH WIND       PRES   REMARKS
CHANUTE        CLOUDY    44  31  60 S23G30    29.86F
COFFEYVILLE    CLOUDY    45  28  51 S21G35    29.90F
HUTCHINSON     CLOUDY    40  35  83 S20       29.71F WCI  30
MEDICINE LODGE   N/A     39  36  89 SE13G21   29.68F WCI  31
NEWTON         CLOUDY    42  37  82 S29G36    29.71F
PARSONS        CLOUDY    45  29  53 S16G26    29.89F
WICHITA INTL   CLOUDY    42  37  82 S20G30    29.73F
WICHITA JABRA  CLOUDY    43  38  82 S23G36    29.73F
WICHITA MCCONL CLOUDY    43  38  80 S22G30    29.74F
WINFIELD       CLOUDY    45  38  76 S23G29    29.78F
$$

KSZ007>012-019>026-033>040-048>060-102>105-110900-
NORTHEAST KANSAS

CITY           SKY/WX    TMP DP  RH WIND       PRES   REMARKS
CONCORDIA      CLOUDY    32  27  81 S10       29.72F WCI  24
EMPORIA        CLOUDY    40  32  73 S14       29.79F WCI  32
LAWRENCE       CLOUDY    39  28  64 SE10      29.84F WCI  32
MANHATTAN      CLOUDY    39  30  70 S9        29.76F
MARYSVILLE     CLOUDY    34  27  75 S9        29.75F
OLATHE IND     CLOUDY    41  28  60 S18G28    29.85F
OLATHE EXE     CLOUDY    39  26  59 S16       29.85F WCI  30
SALINA         CLOUDY    40  33  76 S15       29.71F WCI  32
TOPEKA BILLARD CLOUDY    40  29  64 SE9       29.82F
TOPEKA FORBES  CLOUDY    41  30  65 S13       29.80F
$$




USA.gov is the U.S. government's official web portal to all federal, state and local government web resources and services.